CZ-6A DEB

Satellite information

Favourite Embed

Satellite Type and Status

DEBRISIN ORBIT

Key statistics

Satellite CZ-6A DEB at a glance.

Uptime

1128

Days in orbit

Revolutions

≈ 14.7

Per day

Orbit

SSO

Sun Synchronous Orbit

Inclination

98.5

Latest

Satellite identification and parameters

Extended collection of information and parameters for CZ-6A DEB.

Object identification

Identified? True

Debris? True

Object name: CZ-6A DEB

International designator: 2022-151ABP

Object number (NORAD): 56247

Object ID (CCSDS): 56247

Country: PEOPLES REPUBLIC OF CHINA (PRC)

Current information (Y/N): Y

RCS size: SMALL

Orbital parameters

Period: 97.973 minutes

Inclination: 98.4568 deg

SMA: 7039.885 km

Apoapsis: 747.087 km

Periapsis: 576.413 km

RAAN: 27.3602 deg

Eccentricy: 0.01212198

Argument of periapsis: 79.0225 deg

Mean anomaly: 282.4588 deg

Mean motion: 14.69787028 rev/day

Mean motion (dot): 0.000107 rev/day2

B* drag term: 0.0016076556 1/REarth

Two-line elements (TLE)

Creation date: Dec. 11, 2025, 10:54 a.m.

Reference frame: TEME

Reference center: EARTH

Epoch: Dec. 11, 2025, 1:31 a.m. UTC

TLE line 0: 0 CZ-6A DEB

TLE line 1: 1 56247U 22151ABP 25345.06363703 .00010700 00000-0 16077-2 0 9993

TLE line 2: 2 56247 98.4568 27.3602 0121220 79.0225 282.4588 14.69787028150138

Live tracking on map

Real-time ground track for satellite CZ-6A DEB.

In-orbit conjunctions

A list of the most updated potential collisions computed for object CZ-6A DEB.

Target Orbit TCA Probability of collision Miss distance Type
FENGYUN 1C DEB SSO 2024-11-13 06:11:50 0.0001887793 544.0 (m) DEBRIS
COSMOS 2251 DEB LEO 2024-09-27 11:09:05 0.0001035572 825.0 (m) DEBRIS

Associated space launch

Chinese satellite reported for atmospheric/ocean/environmental/spatial parameter research purposes, details TBD.

CZ-6A DEB was lifted into orbit during the mission ‘Long March 6A | Yunhai 3’, on board a Long March 6A space rocket.

The launch took place on Nov. 11, 2022, 10:52 p.m. from Launch Complex 9A.

For more information about the launch, click the button.

Launch to space Long March 6A | Yunhai 3
Long March 6A | Yunhai 3

Agency: N/A

Status: Launch Successful

Launch date: Nov. 11, 2022, 10:52 p.m. UTC

Rocket: Long March 6A

Launch pad: Launch Complex 9A

Location: Taiyuan Satellite Launch Center, People's Republic of China

...

Latest news about this satellite

There are no fresh news available about this satellite. Check back as we update our databases every day.


Newsletter sign-up

Weekly statistics, charts and insights to help you stay on top of the space industry.